Simultaneous Nadir Overpasses (SNOs) Predictions

Prediction of SNOs between METOP-B and NOAA-19 Satellite Orbit:

Table of predicted SNOs for the next 14.0 days since TLE Epoch: 3/15/2025
Index Date (METOP-B) Time (METOP-B) Lat,Lon (METOP-B) SZA (METOP-B ) Date (NOAA-19) Time (NOAA-19) Lat,Lon (NOAA-19) SZA (NOAA-19 ) Distance(km) Time Diff (sec)
1 03/23/2025 23:40:25 80.74,-104.63 85.25 03/23/2025 23:39:27 80.74,-104.61 85.22 0.29 58
2 03/24/2025 00:31:05 -80.73, 62.87 94.75 03/24/2025 00:30:21 -80.73, 62.84 94.78 0.71 44
3 03/24/2025 01:21:46 80.72,-129.72 85.26 03/24/2025 01:21:23 80.73,-129.85 85.22 2.36 23
4 03/24/2025 02:12:26 -80.71, 37.78 94.74 03/24/2025 02:12:16 -80.71, 37.96 94.72 3.17 10
5 03/24/2025 03:03:07 80.71,-154.81 85.26 03/24/2025 03:03:18 80.70,-154.72 85.28 1.56 11
6 03/24/2025 03:53:47 -80.70, 12.69 94.74 03/24/2025 03:54:12 -80.70, 12.72 94.72 0.47 25
7 03/24/2025 04:44:28 80.69,-179.90 85.27 03/24/2025 04:45:14 80.69,-179.96 85.29 1.09 46



Historial Predications of SNOs between METOP-B and NOAA-19
